Flag for Germany Weather past 2 weeks in Tübingen, Baden-Württemberg, Germany

Now
36 °F

Partly sunny.


Feels Like: 27 °F
Forecast: 29 / 45 °F
Wind: 14 mph from Northwest

Location: Stuttgart-Echterdingen

Current Time: Mar 5, 2015 at 7:33:40 AM

Latest Report: Mar 5, 2015 at 7:20 AM


Visibility: N/A

Pressure: 30.51 "Hg

Humidity: 81%

Dew point: 30 °F

Location of TübingenLocation

Historic Weather in Tübingen — Graph

°F

Tübingen temperature yesterday

Maximum temperature yesterday: 46 °F (at 2:20 PM)
Minimum temperature yesterday: 34 °F (at 10:20 PM)
Average temperature yesterday: 39 °F

Past Weeks' High & Low Weather Summary

 TemperatureHumidityPressure
High55 °F (Feb 20, 2:20 PM)100% (Feb 20, 2:20 AM)30.69 "Hg (Feb 20, 2:20 AM)
Low23 °F (Feb 20, 4:20 AM)34% (Feb 26, 3:20 PM)29.50 "Hg (Feb 23, 3:20 PM)
Average38 °F78%29.99 "Hg
* Reported Feb 18 6:20 AM — Mar 5 6:20 AM, Tübingen, Weather by CustomWeather, © 2015

Note: Actual official high and low records may vary slightly from our data, if they occured in-between our weather recording intervals... More about our weather records

Advertising

Tübingen weather history for previous 24 hours

 ConditionsComfort  
Time TempWeatherWind HumidityBarometerVisibility
6:20 AM
Thu, Mar 5
36 °FPassing clouds.15 mph81%30.51 "HgN/A
5:20 AM36 °FPassing clouds.10 mph81%30.48 "HgN/A
4:20 AM36 °FPassing clouds.9 mph81%30.48 "HgN/A
3:50 AM36 °FPassing clouds.13 mph81%30.48 "HgN/A
2:50 AM37 °FPassing clouds.12 mph75%30.45 "HgN/A
2:20 AM36 °FPassing clouds.10 mph81%30.45 "HgN/A
1:50 AM36 °FPassing clouds.5 mph81%30.45 "HgN/A
1:20 AM36 °FPassing clouds.7 mph75%30.45 "HgN/A
12:50 AM34 °FPassing clouds.7 mph81%30.45 "HgN/A
12:20 AM34 °FPassing clouds.6 mph81%30.45 "HgN/A
11:50 PM
Wed, Mar 4
36 °FPassing clouds.7 mph75%30.42 "HgN/A
11:20 PM34 °FPassing clouds.8 mph81%30.42 "HgN/A
10:20 PM34 °FPassing clouds.9 mph81%30.42 "HgN/A
9:50 PM36 °FPassing clouds.9 mph75%30.39 "HgN/A
9:20 PM37 °FPassing clouds.7 mph70%30.39 "HgN/A
8:50 PM37 °FPassing clouds.8 mph70%30.39 "HgN/A
8:20 PM37 °FPartly cloudy.7 mph65%30.36 "HgN/A
7:50 PM39 °FPartly cloudy.8 mph65%30.36 "HgN/A
7:20 PM37 °FClear.7 mph65%30.36 "Hg10 mi
6:50 PM37 °FClear.7 mph65%30.33 "Hg10 mi
6:20 PM39 °FClear.8 mph61%30.33 "Hg10 mi
5:50 PM41 °FSunny.12 mph53%30.33 "Hg10 mi
5:20 PM43 °FSunny.14 mph53%30.30 "Hg10 mi
4:50 PM43 °FSunny.14 mph49%30.30 "Hg10 mi
4:20 PM43 °FSunny.14 mph49%30.30 "Hg10 mi
3:50 PM43 °FSunny.18 mph49%30.30 "Hg10 mi
3:20 PM45 °FPassing clouds.14 mph46%30.27 "HgN/A
2:50 PM45 °FPassing clouds.12 mph42%30.27 "HgN/A
2:20 PM46 °FPassing clouds.12 mph40%30.27 "HgN/A
1:50 PM45 °FPassing clouds.13 mph37%30.27 "HgN/A
1:20 PM45 °FPassing clouds.13 mph39%30.30 "HgN/A
12:50 PM45 °FScattered clouds.13 mph49%30.30 "HgN/A
12:20 PM43 °FBroken clouds.10 mph49%30.30 "HgN/A
11:50 AM41 °FBroken clouds.10 mph57%30.30 "HgN/A
11:20 AM41 °FBroken clouds.9 mph61%30.30 "HgN/A
10:50 AM41 °FBroken clouds.9 mph66%30.30 "HgN/A
10:20 AM41 °FBroken clouds.10 mph61%30.27 "HgN/A
9:50 AM39 °FBroken clouds.9 mph70%30.27 "HgN/A
9:20 AM39 °FBroken clouds.6 mph70%30.30 "HgN/A
8:50 AM37 °FPartly sunny.3 mph81%30.27 "HgN/A
8:20 AM36 °FPartly sunny.3 mph87%30.27 "HgN/A
7:50 AM36 °FPartly sunny.6 mph81%30.27 "HgN/A
7:20 AM36 °FPartly sunny.7 mph81%30.24 "HgN/A
Weather by CustomWeather, © 2015

See weather overviewHow to use our weather pages